Tracking 28790 objects as of 18-Apr-2024
HD Live streaming from Space Station
objects crossing your sky now

COSMOS 2115

Track COSMOS 2115 now!
10-day predictions
COSMOS 2115 is classified as:


NORAD ID: 21029
Int'l Code: 1990-114B
Perigee: 1,413.4 km
Apogee: 1,418.0 km
Inclination: 82.6 °
Period: 114.0 minutes
Semi major axis: 7786 km
RCS: 1.161 m2 (large)
Launch date: December 22, 1990
Source: Commonwealth of Independent States (former USSR) (CIS)
Launch site: PLESETSK MISSILE AND SPACE COMPLEX (PKMTR)
Your satellite tracking list
Your tracking list is empty




NASA's NSSDC Master Catalog

Two Line Element Set (TLE):
1 21029U 90114B   24108.75637219  .00000031  00000-0  10999-3 0  9999
2 21029  82.5729 357.9395 0002971 178.7370 247.9213 12.63501213536581
Source of the keplerian elements: AFSPC